Terug naar catalogus

STARLINK-35373

ActiefCommunicatieSSO
NORAD 65792·PAYLOAD·🇺🇸 United States

Gelanceerd Sep 26, 2025 vanaf Vandenberg Space Force Base

Loading…

Volgende Passages (komende 24 uur)

TLE

VersSource: CelesTrak SupGP

Epoch: Sep 14, 2026, 21:24 UTC

1 65792C 25218B   26257.89215278  .00013526  00000+0  42005-3 0  2578
2 65792  97.2846 115.3758 0002060 102.5001 354.6297 15.33418507    18

Volg STARLINK-35373 in realtime met AllMySat

Download on the App Store